AirNav   Bose ProFlight Aviation Headset
 
 859 users online  

1F2 Plateau Sky Ranch Airport
Edinburg, New York, USA

GOING TO EDINBURG?


FAA INFORMATION EFFECTIVE 13 SEPTEMBER 2018

Location

FAA Identifier: 1F2
Lat/Long: 43-13-32.1000N / 074-06-53.6000W
43-13.535000N / 074-06.893333W
43.2255833 / -74.1148889
(estimated)
Elevation: 1070 ft. / 326.1 m (surveyed)
Variation: 14W (1985)
From city: 1 mile NW of EDINBURG, NY
Time zone: UTC -4 (UTC -5 during Standard Time)
Zip code: 12134

Airport Operations

Airport use: Open to the public
Control tower: no
ARTCC: BOSTON CENTER
FSS: BURLINGTON FLIGHT SERVICE STATION
NOTAMs facility: BTV (NOTAM-D service available)
Attendance: UNATNDD
Wind indicator: yes
Segmented circle: yes

Airport Communications

CTAF/UNICOM: 122.8
WX AWOS-3 at 5B2 (15 nm SE): 132.025 (518-884-9289)
WX AWOS-3 at NY0 (17 nm SW): 119.225 (518-762-0322)

Nearby radio navigation aids

VOR radial/distance  VOR name  Freq  Var
GFLr266/23.1GLENS FALLS VORTAC110.2014W
ALBr348/31.8ALBANY VORTAC115.3013W
CAMr306/36.5CAMBRIDGE VOR/DME115.0014W

 
NDB name  Hdg/Dist  Freq  Var  ID
JOHNSTOWN049/16.652314WJJH .--- .--- ....
HUNTER354/23.735614WHEU .... . ..-

Airport Services

Parking: tiedowns
Airframe service: NONE
Powerplant service: NONE

Runway Information

Runway 6/24

Dimensions: 2400 x 100 ft. / 732 x 30 m
RWY WIDTH EDGE MARKED WITH RED CONES ALL SEASONS EXCEPT WINTER
Surface: turf, in good condition
RUNWAY 6  RUNWAY 24
Traffic pattern: leftleft
Obstructions: 15 ft. road
ROAD ON BOTH SIDES OF CTRLN AT AN ANGLE TO RY 06.
15 ft. road
ROAD ON BOTH SIDES OF CTRLN RY 24.

Runway 1/19

Dimensions: 2000 x 100 ft. / 610 x 30 m
RWY WIDTH EDGE MARKED WITH RED CONES ALL SEASONS EXCEPT WINTER
Surface: turf, in good condition
RUNWAY 1  RUNWAY 19
Latitude: 43-13.370213N43-13.699498N
Longitude: 074-06.896147W074-06.890705W
Elevation: 1048.0 ft.1067.0 ft.
Gradient: 1.0% UP
Traffic pattern: leftleft
Runway heading: 015 magnetic, 001 true195 magnetic, 181 true
Obstructions: 10 ft. road
ROAD ON BOTH SIDES OF CTRLN RY 01.
15 ft. road
ROAD ON BOTH SIDES OF CTRLN AT AN ANGLE TO RY 19.

Airport Ownership and Management from official FAA records

Ownership: Privately-owned
Owner: MR BRUCE R BROWNELL
98 NORTHVILLE ROAD
EDINBURG, NY 12134
Phone (518) 863-4338
Manager: MR BRUCE R BROWNELL
98 NORTHVILLE ROAD
EDINBURG, NY 12134
Phone (518) 863-4338

Airport Operational Statistics

Aircraft based on the field: 9
Single engine airplanes: 8
Ultralights: 1
    
Aircraft operations: avg 61/week *
78% local general aviation
19% transient general aviation
3% military
* for 12-month period ending 13 September 2016

Additional Remarks

ULTRALGT ACFT ON & INVOF ARPT.
TRAP & SKEET SHOOTING BTN RYS 1 & 6.
ACFT PARKED/HANGARED ON NON ARPT LAND. CROSS PUBLIC ROAD TO/FM ARPT.
RWY 24; +35 - 50 FT TREES, 90 - 250 FT FROM THLD, 0 - 125 FT R OF CNTRLN AND +50 FT TREES, 350 - 425 FT FROM THLD 110 - 150 FT L OF CNTRLN.
RWY 19; +17 - 52 FT TREES, 0 - 230 FT FROM THLD, 50 - 100 FT R OF CNTRLN.
RWY 1; +30 - 60 FT TREES, 0 - 240 FROM THLD, 15 - 100 FT L AND R OF CNTRLN.
RWY 6; +20 - 65 FT TREES, 0 - 500 FT FROM THLD, 30 - 150 L AND R OF CNTRLN.

Instrument Procedures

There are no published instrument procedures at 1F2.

Some nearby airports with instrument procedures:

5B2 - Saratoga County Airport (15 nm SE)
NY0 - Fulton County Airport (17 nm SW)
K09 - Piseco Airport (22 nm NW)
KGFL - Floyd Bennett Memorial Airport (23 nm E)
KSCH - Schenectady County Airport (24 nm S)
 
Loc | Ops | Rwys | IFR | FBO | Links
Com | Nav | Svcs | Stats | Notes


 
Area around 1F2 (Plateau Sky Ranch Airport)
 
Road maps at: MapQuest Bing Google
 
Aerial photo
WARNING: Photo may not be current or correct
Aerial photo of 1F2 (Plateau Sky Ranch Airport)
Photo taken 08-Jul-2006

Do you have a better or more recent aerial photo of Plateau Sky Ranch Airport that you would like to share? If so, please send us your photo.

 
Sectional chart

 
Airport distance calculator
Flying to Plateau Sky Ranch Airport? Find the distance to fly.

From to 1F2

Sunrise and sunset
Times for 22-Sep-2018
 Local
(UTC-4)
 Zulu
(UTC)
Morning civil twilight06:1610:16
Sunrise06:4510:45
Sunset18:5422:54
Evening civil twilight19:2223:22

Current date and time
Zulu (UTC)  22-Sep-2018 21:54:12
Local (UTC-4)  22-Sep-2018 17:54:12
 
METAR
KNY0 
17nm SW 
222137Z AUTO 30007KT 10SM CLR 14/08 A3020 RMK AO2
KGFL 
23nm E 
222053Z AUTO 08006KT 10SM CLR 16/08 A3018 RMK AO2 SLP220 T01560078 56002
KSCH 
24nm S 
221955Z 33006KT 15SM CLR 18/07 A3018
KALB 
32nm SE 
222051Z 34004KT 10SM FEW045 BKN240 BKN270 18/08 A3017 RMK AO2 SLP215 T01830083 56004
TAF
KGFL 
23nm E 
221737Z 2218/2318 35009KT P6SM SCT040 BKN250 FM221900 04007KT P6SM BKN250 FM230100 VRB03KT P6SM SCT250 FM230900 00000KT 3SM BR FEW002 FM231300 VRB05KT P6SM SCT040
NOTAMs
Click for the latest NOTAMs
NOTAMs are issued by the DoD/FAA and will open in a separate window not controlled by AirNav.

 

 
 

Would you like to see your business listed on this page?

 If your business provides an interesting product or service to pilots, flight crews, aircraft, or users of the Plateau Sky Ranch Airport, you should consider listing it here.  To start the listing process, click on the button below
 
Add a business
 

Other Pages about Plateau Sky Ranch Airport

Update a link
 
Copyright © AirNav, LLC. All rights reserved. Privacy Policy  Contact